Theta_e
293 288 285 286 289 289 287 285 285 287 291 288 288 289 291 293 294 293 293 294 295 296 299 301 301 301 302 303 303 304 306 330 330 329 329 330 329 330 331 331 333 335 334 333
289 284 288 288 286 288 286 284 283 286 287 287 288 288 291 292 291 292 292 293 293 295 296 298 299 300 301 301 302 303 304 305 315 330 331 330 329 329 329 330 330 333 333 333
284 285 289 284 281 280 284 283 279 278 282 287 286 286 289 291 290 290 291 292 292 291 292 293 295 296 299 299 300 301 302 305 308 311 330 323 319 313 315 321 323 325 329 327
286 287 283 283 279 281 279 283 281 280 279 278 286 278 286 287 286 287 288 289 289 290 291 292 293 294 295 297 300 301 301 302 307 310 320 321 320 316 316 321 318 316 320 321
282 282 279 279 278 282 280 282 282 282 281 281 282 280 282 284 282 284 286 287 288 289 290 290 291 293 294 296 297 300 300 300 303 307 312 322 321 323 322 320 315 315 314 312
283 286 281 280 282 283 283 283 283 285 283 278 279 279 279 278 280 282 284 285 286 288 289 290 291 292 293 294 295 297 299 298 300 302 308 308 321 321 320 317 315 312 309 307
280 279 281 282 279 283 281 280 276 275 275 273 281 276 277 280 281 282 282 283 285 287 287 289 290 290 292 292 293 294 297 297 298 299 301 304 312 321 319 314 313 308 307 304
274 274 277 280 278 276 277 278 273 266 269 271 277 273 277 281 283 284 284 284 285 286 286 287 288 290 291 291 292 292 293 296 297 297 298 301 305 313 317 315 312 309 307 306
272 273 278 279 280 281 277 275 279 273 274 271 275 278 281 282 282 282 282 282 283 284 286 286 287 288 289 290 291 292 292 293 296 297 297 298 301 304 314 312 311 310 308 306
275 270 276 277 280 280 278 278 273 274 266 265 272 273 275 278 279 281 280 281 282 284 285 286 287 287 289 289 290 292 292 293 294 297 296 297 299 302 306 309 309 308 306 303
276 272 274 277 274 273 275 273 273 272 271 267 266 271 280 278 278 278 280 282 282 283 284 286 286 288 289 289 289 289 291 292 293 294 295 295 296 298 301 303 304 305 303 301
276 273 269 272 276 277 276 272 272 268 267 270 268 268 281 279 280 280 280 282 283 284 284 285 286 286 287 288 288 288 289 290 292 293 294 294 294 295 297 298 299 299 298 298
277 272 267 270 273 275 272 274 273 273 271 266 265 269 280 281 280 281 280 282 283 283 283 284 285 286 286 287 287 288 288 289 291 292 292 293 292 292 293 295 296 296 295 295
279 273 270 268 271 273 270 272 274 271 266 267 269 271 276 278 278 279 281 282 282 283 283 284 284 285 286 287 287 287 288 289 290 291 291 291 291 291 291 293 294 294 294 293
277 270 272 272 273 273 272 271 272 270 271 267 270 271 274 277 278 279 281 281 281 282 282 283 283 285 285 286 287 287 288 288 289 290 291 290 291 292 291 291 291 292 292 292
277 270 269 267 271 271 269 271 272 272 272 272 273 272 278 280 281 279 280 280 280 282 282 283 283 284 285 285 286 287 287 288 289 288 289 289 289 290 290 290 289 290 289 289
274 272 269 266 268 265 264 269 271 272 274 273 270 275 278 277 278 278 280 280 280 282 283 282 283 283 285 285 286 286 287 288 288 288 288 288 288 288 289 289 288 286 286 288
274 271 271 266 266 261 272 276 275 272 273 276 275 276 277 278 279 280 282 281 281 283 283 283 283 284 285 286 286 286 286 286 286 286 286 286 286 286 286 287 286 286 286 285
277 273 269 265 265 269 271 274 273 272 272 276 276 277 278 279 279 278 282 282 282 283 284 284 285 285 284 284 285 284 284 284 284 283 284 284 284 284 285 285 285 285 285 285
272 274 271 267 262 261 271 276 277 276 267 277 278 277 277 277 272 276 281 282 283 283 283 282 283 284 283 282 283 282 281 281 281 283 282 283 284 284 284 285 285 285 285 285
267 268 266 267 265 268 275 277 277 266 269 278 278 278 277 276 278 280 282 282 283 283 282 284 283 281 280 281 282 280 279 279 281 281 281 281 282 283 285 285 285 285 285 285
268 267 265 267 265 263 278 275 270 276 279 279 279 279 279 280 280 281 281 282 282 282 282 282 280 279 280 282 281 278 277 278 278 279 279 279 280 282 284 285 285 285 285 285
268 273 271 271 270 277 280 278 280 281 279 279 279 280 280 279 280 280 281 282 282 282 282 282 278 278 279 279 279 276 275 275 277 276 276 277 279 281 283 284 285 285 285 285
274 277 273 273 276 277 279 281 282 282 281 282 282 281 281 279 280 280 281 281 281 282 282 281 279 277 276 276 275 274 274 276 274 273 274 276 278 280 282 284 285 285 285 284
277 277 274 273 276 277 279 280 281 282 282 281 282 281 281 281 280 280 280 281 281 281 281 279 276 275 275 274 272 272 273 272 270 271 273 276 278 279 280 282 284 285 286 286
279 276 274 273 278 278 279 282 283 281 281 282 281 281 281 281 280 280 279 280 280 278 277 274 274 272 271 270 269 270 269 268 267 269 272 274 274 276 278 279 281 286 288 288
Wind_Speed
17 14 14 16 12 7 7 9 11 15 10 15 12 11 12 16 18 19 18 19 20 21 20 21 22 22 22 22 23 22 22 10 9 8 8 8 9 9 9 10 13 13 11 12
6 18 12 10 15 7 8 9 10 7 16 14 12 6 14 15 17 19 20 20 21 22 23 23 24 23 22 22 21 21 21 19 15 9 9 10 8 8 8 8 10 12 12 12
16 12 8 12 16 15 7 10 15 15 17 10 11 13 8 11 18 18 19 19 20 22 23 22 23 23 22 22 23 22 22 21 17 19 9 3 1 2 3 7 9 9 10 11
10 12 13 9 13 15 6 16 17 17 12 4 9 3 8 10 13 19 20 20 21 22 22 21 22 23 23 21 19 21 21 22 18 17 14 10 9 9 7 9 8 9 11 13
7 12 15 12 12 13 7 23 17 12 7 4 5 5 4 9 13 20 19 19 20 20 21 23 22 21 21 20 20 20 20 20 21 20 14 11 14 10 7 7 10 11 9 10
7 6 7 10 13 5 21 16 7 1 2 4 5 6 4 7 11 15 18 20 20 20 20 19 21 20 19 19 20 20 22 21 21 20 20 19 15 13 8 8 9 8 7 7
7 9 3 16 12 4 20 16 4 2 2 3 3 9 7 7 10 14 17 20 19 19 20 20 21 20 20 21 22 19 22 22 22 21 20 18 19 11 13 11 10 9 8 7
8 0 13 11 10 10 10 8 5 6 6 12 13 6 6 6 7 11 14 17 19 19 18 19 20 18 18 20 20 21 22 21 21 21 22 19 17 11 6 9 8 9 9 10
8 3 4 7 7 10 6 5 6 5 5 6 4 6 7 3 3 10 15 19 19 18 17 19 18 17 17 18 19 19 20 20 20 20 18 18 17 15 13 6 5 6 8 6
5 7 3 5 3 4 5 6 1 0 6 7 6 11 7 1 11 18 21 20 18 17 17 16 16 17 16 16 17 18 18 18 21 19 17 16 16 15 13 7 8 10 9 10
3 2 2 4 4 5 2 3 3 3 4 6 8 4 3 10 14 18 18 19 17 18 18 16 15 15 15 16 16 16 16 18 18 20 16 17 16 14 13 8 6 7 8 11
3 3 5 7 8 4 2 0 3 2 2 7 11 12 11 3 13 15 16 16 14 15 17 17 16 17 16 17 18 17 17 18 17 17 17 15 15 14 11 10 7 4 5 8
4 2 6 4 5 5 4 4 5 5 4 13 9 8 9 10 15 16 17 16 14 15 16 15 16 15 16 16 16 17 16 16 16 16 18 15 13 14 13 10 7 4 4 7
3 5 8 8 10 13 15 16 14 10 8 15 18 23 26 19 20 20 18 18 18 15 16 15 16 16 15 15 15 16 17 16 16 15 15 17 13 12 13 11 7 5 4 6
4 7 9 14 19 20 20 22 21 20 22 20 27 22 27 23 22 21 16 17 18 16 17 16 16 17 16 15 15 15 15 15 16 16 15 16 16 12 11 11 8 4 3 4
5 7 2 8 18 19 19 22 24 26 28 26 25 29 23 21 16 18 17 14 16 17 17 15 18 18 15 16 15 15 15 15 15 15 15 14 14 15 12 9 8 5 2 2
5 4 5 8 3 6 12 16 17 17 19 18 21 21 18 19 18 16 10 15 18 15 13 14 16 15 14 15 15 14 14 15 14 14 14 15 14 14 14 10 7 5 2 3
7 5 6 10 8 7 5 13 14 16 16 19 19 21 19 19 15 13 13 18 15 6 9 14 14 14 14 14 14 14 13 13 13 12 13 15 15 14 12 12 5 5 1 3
14 10 6 6 9 18 15 10 7 14 19 20 21 20 16 14 15 17 16 15 13 6 8 11 13 13 13 13 13 13 11 12 11 12 13 14 14 14 13 10 9 4 3 2
4 9 9 4 7 10 14 14 3 10 17 18 13 11 10 10 14 14 17 17 15 11 6 8 13 12 11 11 10 11 12 11 11 12 14 14 13 13 14 11 8 5 3 3
5 5 16 15 12 10 15 8 4 7 12 10 7 5 9 14 14 23 17 17 15 9 7 6 7 9 10 8 9 11 12 11 10 13 14 14 13 13 11 11 6 5 5 3
10 8 7 7 10 16 14 1 11 13 13 13 12 15 19 20 19 18 18 17 16 14 8 5 6 7 7 7 9 11 11 11 12 13 14 14 14 11 10 12 9 6 5 6
8 14 6 12 8 14 14 15 15 14 17 19 20 19 21 21 19 18 18 17 17 16 10 4 2 5 6 6 6 12 11 12 13 13 14 13 14 12 11 11 10 6 5 6
12 17 11 15 17 23 25 20 19 19 19 19 19 18 17 19 18 17 16 15 14 12 11 3 7 8 8 4 7 8 10 12 12 13 13 12 12 12 11 9 7 6 5 5
11 7 14 19 22 25 24 23 20 16 16 16 16 17 17 17 18 17 15 14 13 12 7 7 9 11 10 10 9 9 11 12 12 12 12 12 10 11 11 9 9 7 7 7
15 22 16 19 25 20 20 20 16 16 17 18 16 17 16 15 15 14 14 12 10 9 8 9 9 9 9 9 9 8 7 9 11 13 10 10 10 10 10 9 10 13 16 15
Wind_Direction
42 64 41 21 13 355 334 325 335 338 2 343 341 337 64 50 48 40 36 27 22 13 10 10 8 1 360 1 352 341 338 252 225 216 211 213 206 203 201 203 221 217 195 194
118 47 22 19 17 17 15 16 2 322 346 330 334 345 88 62 47 34 23 20 15 10 7 6 7 5 5 1 353 346 336 327 312 220 217 219 212 208 204 199 207 230 200 191
63 20 357 17 23 5 5 5 339 311 323 301 356 136 111 69 50 34 26 20 13 8 1 2 -0 2 1 358 353 349 342 330 320 312 234 231 54 60 163 199 206 217 200 188
50 20 8 13 21 357 335 356 322 316 335 337 338 280 69 28 28 26 23 17 12 7 6 4 -0 358 357 355 347 347 344 340 328 312 291 207 210 199 209 216 204 197 207 197
57 15 10 18 357 343 329 318 304 304 298 314 37 258 44 39 12 15 16 18 14 9 5 4 3 358 355 354 351 346 346 343 340 330 323 278 226 223 209 211 201 203 207 203
64 37 28 355 313 326 330 318 308 220 182 233 160 360 60 32 11 4 7 8 7 5 3 2 359 358 357 354 357 352 348 345 343 337 330 334 227 224 211 193 194 191 195 186
332 41 50 6 350 349 356 353 353 275 277 311 27 320 69 59 28 17 7 0 1 1 359 357 356 355 353 355 353 355 352 345 344 341 335 331 317 235 223 186 195 182 186 200
359 302 19 5 22 327 339 347 14 311 320 308 300 256 120 116 34 9 1 354 351 353 353 354 353 354 351 349 351 350 353 348 345 343 338 332 324 312 276 229 191 189 200 192
349 3 18 25 351 350 350 30 346 287 228 267 234 115 170 199 350 349 353 350 347 345 347 347 348 350 350 350 349 347 346 353 349 345 340 334 328 319 297 213 209 203 190 181
33 289 67 332 277 79 34 5 241 80 299 294 284 293 309 309 328 341 341 340 333 337 338 342 343 344 345 346 342 342 345 348 351 344 344 333 327 325 308 284 214 195 188 172
9 329 16 279 32 334 329 51 21 277 266 292 310 278 136 354 358 339 338 337 330 329 331 335 339 340 338 339 343 341 341 344 348 348 339 335 331 330 324 296 271 218 189 178
61 304 278 298 339 253 280 45 15 295 259 280 283 276 277 71 352 338 339 340 329 331 329 333 338 340 337 340 340 341 342 339 343 343 335 334 331 331 333 319 306 282 207 185
9 212 297 185 162 170 243 233 298 319 274 245 269 275 185 306 327 325 325 325 325 323 330 334 339 340 333 336 337 338 340 338 337 339 342 330 335 333 327 324 313 292 227 186
200 249 243 272 305 315 288 279 272 239 257 264 241 268 284 296 322 315 313 316 313 312 321 323 335 335 330 330 334 335 334 338 340 334 341 339 330 328 321 313 301 269 228 193
255 259 264 263 275 282 282 280 276 261 256 248 266 280 276 296 301 296 295 315 321 309 308 316 327 325 325 325 327 330 331 334 337 335 336 338 335 321 315 310 304 295 242 201
195 271 326 273 264 271 283 277 271 264 263 261 261 267 278 287 293 307 308 327 310 309 306 316 317 319 319 319 319 325 326 331 331 335 335 332 339 332 318 309 303 303 226 144
243 264 274 271 356 314 266 252 250 252 257 251 253 262 290 295 297 305 324 316 303 307 310 314 313 315 310 309 318 317 322 323 325 329 331 334 339 332 325 313 304 276 250 150
241 229 254 285 318 253 24 292 272 273 275 263 263 271 283 290 296 309 305 293 300 298 298 305 305 303 304 308 314 314 317 319 321 322 326 330 332 328 325 313 295 283 266 175
241 243 261 256 262 286 284 284 319 304 275 267 269 274 280 287 311 300 295 304 306 290 289 291 297 297 303 305 313 313 311 316 315 315 323 324 323 321 321 320 296 265 228 204
231 252 238 196 264 284 277 314 321 319 289 284 268 275 261 321 298 305 319 313 301 294 253 266 288 295 298 299 308 307 308 313 311 318 318 317 315 313 317 313 292 269 234 212
174 203 228 239 244 266 271 299 47 253 277 305 272 250 274 298 301 308 306 299 296 288 277 266 273 282 290 298 301 304 309 310 324 316 311 311 311 309 307 299 296 257 244 210
180 197 210 237 244 250 250 52 212 260 293 300 264 267 295 306 305 296 296 296 297 298 291 273 264 273 294 302 309 306 308 323 319 314 315 311 310 310 307 307 306 270 229 214
222 216 233 217 201 244 257 241 260 270 278 284 281 283 292 292 293 291 294 300 299 300 296 270 241 289 299 306 319 309 316 321 312 319 311 310 309 307 307 307 302 287 245 226
222 247 247 260 246 254 269 270 268 275 276 284 282 282 284 289 293 292 291 292 290 290 292 313 306 299 302 331 320 309 317 314 330 312 310 309 306 309 309 309 298 282 263 237
228 199 227 252 259 265 269 267 268 269 271 275 280 280 278 285 287 287 289 287 288 289 306 308 304 302 310 321 323 325 324 332 318 312 308 307 306 313 307 301 299 284 257 233
219 236 240 251 256 261 268 278 289 289 284 283 279 287 286 286 292 300 295 296 305 306 315 305 303 310 310 317 319 325 327 326 317 315 313 313 308 309 303 305 304 293 260 253